Location: Vinland
(47.7731°N, 122.6974°W)
Time: 00:57:35
(UTC+00:00)

Transit 4A - Pass Details

Date: 07 April 2023
Orbit: 864 x 979 km, 66.8° (Epoch: 29 May)

Event Time Altitude Azimuth Distance (km) Brightness Sun altitude
Exits shadow 12:58:46 - 247° (WSW) 2,655 9.6 -7.1°
Reaches altitude 10° 12:59:09 10° 249° (WSW) 2,524 9.5 -7.1°
Maximum altitude 13:04:34 38° 317° (NW) 1,326 8.6 -6.2°
Drops below altitude 10° 13:10:08 10° 25° (NNE) 2,597 10.9 -5.3°
Sets 13:12:53 0° 33° (NNE) 3,560 11.8 -4.9°
